Погода в Камешково

Россия / Владимирская область     56°20′56″N   40°59′44″E
темп.,
°C
ветер,
м/с
пор.,
м/с
влажн.,
%
обл.,
%
осадки,
мм/ч
давл.,
гПа
погр.,
м
17 июня, чт
чт1700:00+12ссз35654 0.0 101875
03:00+10ссз23680 0.0 102041
06:00+14сз246989 0.0 1021132
09:00+19сз465314 0.0 1022678
12:00+21ссз57405 0.0 10221670
15:00+22ссз46425 0.0 10232062
18:00+21ссз3657100 0.0 1024794
21:00+15с11704 0.0 102511
18 июня, пт
пт1800:00+13з11720 0.0 102611
03:00+12з11800 0.0 102710
06:00+15з1174100 0.0 102883
09:00+20з23615 0.0 1028560
12:00+23зсз335211 0.0 10271340
15:00+24з33505 0.0 10261527
18:00+24з236052 0.0 1026976
21:00+18ююз11740 0.0 102611
19 июня, сб
сб1900:00+15юз348514 0.0 102663
03:00+14зюз36905 0.0 1027100
06:00+17зюз38815 0.0 1027211
09:00+22зюз46638 0.0 1027612
12:00+25з45515 0.0 10261228
15:00+26з46483 0.0 10251302
18:00+25з36594 0.0 1024673
21:00+19зюз34771 0.0 102459
20 июня, вс
вс2000:00+16зюз35880 0.0 102586
03:00+15зюз34952 0.0 102571
06:00+18зюз35832 0.0 1026155
09:00+22зюз34650 0.0 1025528
12:00+26зюз33502 0.0 10241172
15:00+28з34435 0.0 10231382
18:00+26сз23570 0.0 1022528
21:00+20юз227513 0.0 102217
21 июня, пн
пн2100:00+17зюз2283100 0.0 102235
03:00+16юз229078 0.0 102341
06:00+18юз2483100 0.0 1023124
09:00+23зюз226537 0.0 1022477
12:00+26з2355100 0.0 1022954
15:00+27зсз335410 0.0 10211187
18:00+27з22625 0.0 1021618
21:00+22з118023 0.0 102111